STARLINK-32883, 62806

Orbit data source: Space-Track

STARLINK-32883, 62806 is a payload satellite owned by SpaceX/Seattle (US) in LEO that was launched on Fri, 24 Jan 2025 UTC via an FALCON 9 launch vehicle from the Air Force Western Test Range (AFWTR). Payload-class satellites include a variety of spacecraft equipped with specific instruments for various scientific and technological missions. These include communications satellites like Starlink; space stations such as the ISS; scientific satellites like the Hubble; Earth observation satellites from companies like Planet Labs, Umbra, and HawkEye 360; GPS; miniature CubeSats for education and research; and military/defense satellites.

Loading next visibility...
Identifier
62806, 2025-018A
Orbit
LEO
Country
Flag of USUS
Related business
Manufacturer
SpaceX/Seattle
Mission
Operational Commercial Communications
Bus & Motor
STARLINK V2M, Unknown motor
Mass
730 kg wet, ~700 kg dry
Launch date (UTC)
2025-01-24 (10 months ago)
Launch vehicle
FALCON 9
Launch site
Air Force Western Test Range (AFWTR)
Object type
Payload
Rocket body
Debris
Shape & HBR
Box + 2 Pan, 17.7 m
Radar Cross Section
33.884 m², Large (>1 m²)

Expand to show TLE details & history
Last TLE update: 15 hours ago

TLE from 15 hours ago
0 STARLINK-32883
1 62806U 25018A   25340.83859943  .00067660  00000-0  22752-2 0  9996
2 62806  53.1613  20.8036 0002478  81.7873 278.3409 15.30207724 49879
Epoch: 2025-12-06T20:07Z
TLE epoch observation values (Epoch: 2025-12-06T20:07:34.990Z)
Latitude
-0.00002°
Longitude
3.04721°
Altitude
475.846 km
Speed
7.629 km/s
True Right ascension
01h 23m 12s
True Declination
0° 00' 00"
Sunlit
Object was in full shadow at epoch
Visualization orbit readout
Latitude
Unknown
Longitude
Unknown
Altitude
Unknown
Speed
Unknown
Apparent Right ascension
Unknown
Apparent Declination
Unknown
Sunlit
N/A
Visualization observer readout
Local Sidereal Time
09:01:29
Azimuth
Unknown
Elevation
Unknown
Doppler factor
Unknown
Orbital elements
Apogee altitude
477.147 km
Perigee altitude
473.75 km
Semi-major axis
6,853.585 km
Eccentricity
0.00025
Inclination
53.1613°
RAAN
20.8036°
Arg. of periapsis
81.7873°
True anomaly
278.3128°
Mean anomaly
278.3409°
Eccentric anomaly
278.32685°
Mean motion
3.82531 °/min
Orbital period
94.11 mins
BSTAR
0.0022752
Loading maneuver chart data...
Computing Atmospheric mass density...
Loading historical data...
Loading historical data...
Loading historical data...
Loading historical data...
Loading historical data...
Loading historical data...
Loading historical data...

Documentation

Showing up to 5 results
|